CW2888 Weather Reports


time (UTC)temp
C
wind
direction
speed
KPH
gust
KPH
rain 1hr
cm
rain 24hr
cm
rain mn
cm
humidity
%
barometer
mb
20260508020308 10 145 3.2 9.7 0.00 0.30 0.00 76 1014.9
20260508015809 10 123 3.2 9.7 0.00 0.30 0.00 76 1014.9
20260508015308 10 108 3.2 4.8 0.00 0.30 0.00 76 1014.8
20260508014809 10 127 3.2 8.0 0.00 0.30 0.00 76 1014.9
20260508013808 10 120 4.8 11.3 0.00 0.30 0.00 75 1014.8
20260508013308 10 138 4.8 9.7 0.00 0.30 0.00 75 1014.9
20260508012808 10 163 4.8 11.3 0.00 0.30 0.00 74 1014.9
20260508011809 10 159 3.2 9.7 0.00 0.30 0.00 74 1014.9
20260508011309 10 141 3.2 9.7 0.00 0.30 0.00 74 1014.9
20260508010309 10 151 4.8 9.7 0.00 0.30 0.00 74 1014.9
20260508005809 10 141 3.2 8.0 0.00 0.30 0.00 74 1014.9
20260508005308 10 149 3.2 11.3 0.00 0.30 0.00 74 1015.0
20260508004808 10 168 4.8 9.7 0.00 0.30 0.00 74 1014.9
20260508004308 10 127 3.2 4.8 0.00 0.30 0.00 74 1014.9
20260508003809 10 149 1.6 4.8 0.00 0.30 0.00 74 1014.9
20260508002309 10 147 3.2 8.0 0.00 0.30 0.00 74 1015.0
20260508001809 10 141 3.2 8.0 0.00 0.30 0.00 74 1015.0
20260508000809 10 142 3.2 4.8 0.00 0.30 0.00 74 1015.1
20260508000308 10 146 1.6 4.8 0.00 0.30 0.00 74 1015.1
20260507235809 10 150 3.2 4.8 0.00 0.30 0.00 74 1015.2
20260507235309 10 149 4.8 9.7 0.00 0.30 0.00 75 1015.2
20260507234809 10 146 3.2 3.2 0.00 0.30 0.00 75 1015.2
20260507233809 10 151 4.8 11.3 0.00 0.30 0.00 77 1015.2
20260507233309 10 144 1.6 4.8 0.00 0.30 0.00 78 1015.2
20260507232809 10 124 3.2 4.8 0.00 0.30 0.00 79 1015.2
20260507231809 10 108 1.6 3.2 0.00 0.30 0.00 81 1015.2
20260507231309 10 170 0.0 0.0 0.00 0.30 0.00 81 1015.2
20260507230820 10 170 0.0 0.0 0.00 0.30 0.00 81 1015.2
20260507230309 10 170 0.0 0.0 0.00 0.30 0.00 81 1015.2
20260507225809 10 170 0.0 0.0 0.00 0.30 0.30 81 1015.2
20260507224809 10 170 0.0 0.0 0.00 0.30 0.30 81 1015.3
20260507224310 10 170 0.0 0.0 0.00 0.30 0.30 81 1015.3
20260507223809 10 170 0.0 0.0 0.00 0.30 0.30 81 1015.3
20260507223309 10 170 0.0 0.0 0.00 0.30 0.30 81 1015.3
20260507222308 11 170 0.0 0.0 0.00 0.30 0.30 82 1015.2
20260507221809 11 170 0.0 0.0 0.00 0.30 0.30 82 1015.3
20260507221309 11 170 0.0 0.0 0.00 0.30 0.30 82 1015.3
20260507220809 11 170 0.0 0.0 0.00 0.30 0.30 82 1015.3
20260507220308 11 170 0.0 0.0 0.00 0.30 0.30 82 1015.4
20260507215809 11 170 0.0 0.0 0.00 0.30 0.30 82 1015.4
20260507214809 11 170 0.0 3.2 0.00 0.30 0.30 82 1015.4
20260507214309 11 189 0.0 3.2 0.00 0.30 0.30 82 1015.4
20260507213808 11 195 1.6 3.2 0.00 0.30 0.30 82 1015.4
20260507213309 11 159 0.0 0.0 0.00 0.30 0.30 82 1015.3
20260507212809 11 159 0.0 0.0 0.00 0.30 0.30 82 1015.3
20260507212308 11 159 0.0 0.0 0.00 0.30 0.30 82 1015.3
20260507211809 11 159 0.0 0.0 0.00 0.30 0.30 82 1015.3
20260507211309 11 159 0.0 0.0 0.00 0.30 0.30 81 1015.2
20260507210809 11 159 0.0 0.0 0.00 0.30 0.30 82 1015.2
20260507210310 11 159 1.6 3.2 0.00 0.30 0.30 81 1015.2
20260507205808 11 153 1.6 3.2 0.00 0.30 0.30 81 1015.1
20260507204808 11 134 1.6 3.2 0.00 0.30 0.30 82 1015.1
20260507204309 11 122 0.0 0.0 0.00 0.30 0.30 82 1015.1
20260507203308 11 122 0.0 0.0 0.00 0.30 0.30 82 1015.0
20260507202809 11 122 0.0 0.0 0.00 0.30 0.30 81 1015.0
20260507202309 11 122 0.0 0.0 0.00 0.30 0.30 80 1014.9
20260507201809 11 122 0.0 0.0 0.00 0.30 0.30 80 1015.0
20260507201308 11 122 0.0 0.0 0.00 0.30 0.30 79 1014.9
20260507195809 11 122 0.0 0.0 0.00 0.30 0.30 78 1014.8
20260507195309 11 122 0.0 0.0 0.00 0.30 0.30 78 1014.8
20260507194808 11 122 0.0 0.0 0.00 0.30 0.30 78 1014.7
20260507194308 11 122 0.0 0.0 0.00 0.30 0.30 78 1014.7
20260507193808 11 122 0.0 0.0 0.00 0.30 0.30 78 1014.7
20260507193309 12 122 0.0 0.0 0.00 0.30 0.30 78 1014.7
20260507192808 12 122 0.0 0.0 0.00 0.30 0.30 78 1014.6
20260507192309 12 122 0.0 0.0 0.00 0.30 0.30 78 1014.6
20260507191809 12 122 0.0 0.0 0.00 0.30 0.30 78 1014.6
20260507191309 12 122 0.0 0.0 0.00 0.30 0.30 78 1014.5
20260507190809 12 122 0.0 0.0 0.00 0.30 0.30 79 1014.5
20260507190309 12 122 0.0 1.6 0.00 0.30 0.30 79 1014.5
20260507185809 12 122 0.0 3.2 0.00 0.30 0.30 79 1014.5
20260507185308 12 122 1.6 3.2 0.00 0.30 0.30 79 1014.5
20260507184809 12 71 0.0 1.6 0.00 0.30 0.30 79 1014.6
20260507183809 12 71 1.6 3.2 0.00 0.30 0.30 79 1014.6
20260507183308 12 71 0.0 3.2 0.00 0.30 0.30 79 1014.5
20260507182809 12 71 1.6 3.2 0.00 0.30 0.30 79 1014.5
20260507182308 12 101 1.6 3.2 0.00 0.30 0.30 78 1014.5
20260507181809 12 101 1.6 3.2 0.00 0.30 0.30 78 1014.5
20260507181308 12 86 3.2 8.0 0.00 0.30 0.30 79 1014.5
20260507180308 12 81 1.6 4.8 0.00 0.30 0.30 79 1014.5
20260507175809 12 93 1.6 3.2 0.00 0.30 0.30 80 1014.4
20260507174809 12 109 3.2 4.8 0.00 0.30 0.30 80 1014.5
20260507174309 12 112 3.2 8.0 0.03 0.30 0.30 81 1014.5
20260507173809 12 80 4.8 8.0 0.03 0.30 0.30 81 1014.6
20260507173309 12 96 1.6 8.0 0.05 0.30 0.30 82 1014.5
20260507172808 12 85 4.8 8.0 0.05 0.30 0.30 81 1014.6
20260507172308 12 93 1.6 3.2 0.05 0.30 0.30 82 1014.5
20260507171308 12 68 3.2 4.8 0.05 0.30 0.30 82 1014.5
20260507170808 12 48 3.2 8.0 0.05 0.30 0.30 82 1014.5
20260507170309 12 80 1.6 3.2 0.05 0.30 0.30 83 1014.5
20260507165809 12 50 1.6 3.2 0.05 0.30 0.30 83 1014.5
20260507165309 12 62 1.6 9.7 0.05 0.30 0.30 82 1014.5
20260507164808 12 325 0.0 1.6 0.05 0.30 0.30 82 1014.5
20260507164309 12 332 1.6 3.2 0.05 0.28 0.28 82 1014.5
20260507163809 12 351 1.6 3.2 0.05 0.28 0.28 82 1014.6
20260507163309 12 315 1.6 1.6 0.03 0.25 0.25 82 1014.7
20260507162808 12 307 1.6 3.2 0.00 0.23 0.23 82 1014.6
20260507162309 12 331 1.6 3.2 0.00 0.23 0.23 81 1014.6
20260507161309 12 63 1.6 8.0 0.03 0.23 0.23 80 1014.5
20260507160809 12 66 3.2 8.0 0.03 0.23 0.23 81 1014.5
20260507160308 12 68 1.6 3.2 0.03 0.23 0.23 81 1014.5
20260507155809 12 41 1.6 4.8 0.03 0.23 0.23 81 1014.5
20260507155309 12 69 1.6 4.8 0.03 0.23 0.23 81 1014.5
20260507154309 12 65 0.0 4.8 0.20 0.23 0.23 81 1014.5
20260507153809 12 44 1.6 4.8 0.23 0.23 0.23 81 1014.6
20260507152808 12 44 1.6 4.8 0.23 0.23 0.23 84 1014.6
20260507152309 12 10 1.6 3.2 0.23 0.23 0.23 84 1014.6
20260507151809 12 35 0.0 3.2 0.23 0.23 0.23 83 1014.7
20260507151309 12 5 1.6 8.0 0.23 0.23 0.23 82 1014.7
20260507150809 12 73 3.2 4.8 0.23 0.23 0.23 82 1014.7
20260507150309 12 41 1.6 3.2 0.23 0.23 0.23 83 1014.7
20260507145808 12 15 1.6 3.2 0.23 0.23 0.23 81 1014.7
20260507144809 13 48 1.6 3.2 0.10 0.10 0.10 72 1015.0
20260507144309 13 282 1.6 3.2 0.05 0.05 0.05 70 1014.9
20260507143809 13 284 1.6 4.8 0.03 0.03 0.03 69 1014.8
20260507143308 13 277 1.6 3.2 0.00 0.00 0.00 67 1014.8
20260507142808 13 276 1.6 3.2 0.00 0.00 0.00 66 1014.9
20260507141808 13 168 0.0 0.0 0.00 0.00 0.00 65 1014.9
20260507141309 13 168 0.0 3.2 0.00 0.00 0.00 64 1014.9
20260507140809 13 168 1.6 3.2 0.00 0.00 0.00 64 1015.0
20260507140309 14 167 1.6 8.0 0.00 0.00 0.00 64 1015.0
20260507135809 14 194 1.6 3.2 0.00 0.00 0.00 63 1015.0
20260507135309 14 156 3.2 4.8 0.00 0.00 0.00 62 1014.9
20260507134809 14 144 3.2 8.0 0.00 0.00 0.00 60 1015.0
20260507134309 14 206 4.8 8.0 0.00 0.00 0.00 58 1015.0
20260507133809 14 144 6.4 12.9 0.00 0.00 0.00 58 1015.0
20260507133308 14 175 6.4 14.5 0.00 0.00 0.00 58 1015.0
20260507132808 14 164 6.4 12.9 0.00 0.00 0.00 58 1014.9
20260507132308 14 210 4.8 8.0 0.00 0.00 0.00 58 1015.0
20260507131309 14 226 6.4 11.3 0.00 0.00 0.00 57 1015.0
20260507130809 14 181 4.8 12.9 0.00 0.00 0.00 57 1015.0
20260507130309 15 223 6.4 12.9 0.00 0.00 0.00 56 1015.0
20260507125809 15 225 4.8 11.3 0.00 0.00 0.00 57 1015.0
20260507125309 15 218 4.8 11.3 0.00 0.00 0.00 56 1015.0
20260507124309 14 227 4.8 19.3 0.00 0.00 0.00 57 1015.0
20260507123809 14 224 3.2 11.3 0.00 0.00 0.00 57 1015.0
20260507122808 14 109 3.2 9.7 0.00 0.00 0.00 55 1015.0
20260507122309 14 197 4.8 11.3 0.00 0.00 0.00 54 1015.0
20260507121808 15 120 4.8 11.3 0.00 0.00 0.00 54 1015.0
20260507121308 15 188 3.2 12.9 0.00 0.00 0.00 55 1015.0
20260507120808 15 201 3.2 9.7 0.00 0.00 0.00 56 1015.0
20260507115808 14 193 8.0 14.5 0.00 0.00 0.00 57 1015.1
20260507115309 14 128 4.8 11.3 0.00 0.00 0.00 58 1015.1
20260507114809 14 145 8.0 14.5 0.00 0.00 0.00 59 1015.2
20260507114309 14 175 4.8 12.9 0.00 0.00 0.00 57 1015.1
20260507113308 14 167 4.8 14.5 0.00 0.00 0.00 58 1015.1
20260507112808 14 149 4.8 14.5 0.00 0.00 0.00 59 1015.2
20260507112309 14 111 4.8 11.3 0.00 0.00 0.00 59 1015.1
20260507111309 14 127 8.0 12.9 0.00 0.00 0.00 62 1015.1
20260507110809 14 152 4.8 11.3 0.00 0.00 0.00 62 1015.2
20260507110308 14 112 8.0 22.5 0.00 0.00 0.00 62 1015.3
20260507105809 14 115 8.0 19.3 0.00 0.00 0.00 63 1015.2
20260507105308 14 133 4.8 12.9 0.00 0.00 0.00 62 1015.3
20260507104808 14 118 6.4 12.9 0.00 0.00 0.00 62 1015.3
20260507103808 15 145 3.2 11.3 0.00 0.00 0.00 61 1015.4
20260507103308 15 118 4.8 14.5 0.00 0.00 0.00 64 1015.4
20260507102809 15 192 4.8 14.5 0.00 0.00 0.00 62 1015.4
20260507102309 14 231 4.8 12.9 0.00 0.00 0.00 63 1015.5
20260507101809 14 172 3.2 11.3 0.00 0.00 0.00 66 1015.6
20260507101308 14 149 8.0 14.5 0.00 0.00 0.00 64 1015.6
20260507100808 14 142 4.8 12.9 0.00 0.00 0.00 65 1015.6
20260507095808 13 171 8.0 19.3 0.00 0.00 0.00 65 1015.7
20260507095309 13 138 6.4 11.3 0.00 0.00 0.00 64 1015.6
20260507094809 13 139 4.8 11.3 0.00 0.00 0.00 65 1015.6
20260507094309 13 122 4.8 9.7 0.00 0.00 0.00 70 1015.6
20260507093809 12 125 8.0 12.9 0.00 0.00 0.00 69 1015.5
20260507093309 12 128 3.2 8.0 0.00 0.00 0.00 70 1015.6
20260507092809 12 121 9.7 12.9 0.00 0.00 0.00 71 1015.5
20260507092309 12 91 6.4 12.9 0.00 0.00 0.00 71 1015.5
20260507091808 12 84 6.4 12.9 0.00 0.00 0.00 72 1015.6
20260507091308 11 107 4.8 12.9 0.00 0.00 0.00 71 1015.6
20260507090809 11 85 4.8 14.5 0.00 0.00 0.00 72 1015.7
20260507090309 11 115 4.8 9.7 0.00 0.00 0.00 73 1015.7
20260507085809 11 125 4.8 8.0 0.00 0.00 0.00 74 1015.7
20260507085309 11 128 4.8 9.7 0.00 0.00 0.00 74 1015.7
20260507084808 10 127 4.8 12.9 0.00 0.00 0.00 75 1015.7
20260507084308 10 114 4.8 9.7 0.00 0.00 0.00 75 1015.7
20260507083809 10 107 1.6 9.7 0.00 0.00 0.00 76 1015.7
20260507083311 10 97 3.2 8.0 0.00 0.00 0.00 77 1015.7
20260507082841 10 141 3.2 8.0 0.00 0.00 0.00 76 1015.8
20260507081808 9 99 3.2 8.0 0.00 0.00 0.00 78 1015.7
20260507081309 9 63 3.2 8.0 0.00 0.00 0.00 78 1015.7
20260507080808 9 82 4.8 8.0 0.00 0.00 0.00 78 1015.6
20260507080309 9 110 4.8 8.0 0.00 0.00 0.00 79 1015.6
20260507075309 8 77 3.2 8.0 0.00 0.00 0.00 80 1015.5
20260507074808 8 58 3.2 4.8 0.00 0.00 0.00 80 1015.5
20260507074308 8 123 1.6 4.8 0.00 0.00 0.00 81 1015.5
20260507073809 8 60 1.6 3.2 0.00 0.00 0.00 81 1015.5
20260507073308 8 94 1.6 3.2 0.00 0.00 0.00 81 1015.5
20260507072809 8 80 3.2 4.8 0.00 0.00 0.00 81 1015.4
20260507071809 8 77 3.2 8.0 0.00 0.00 0.00 82 1015.3
20260507071309 8 78 1.6 8.0 0.00 0.00 0.00 82 1015.3
20260507070309 8 92 4.8 11.3 0.00 0.00 0.00 82 1015.3
20260507065308 7 75 3.2 11.3 0.00 0.00 0.00 83 1015.2
20260507064808 7 78 4.8 4.8 0.00 0.00 0.00 83 1015.2
20260507064309 7 93 3.2 4.8 0.00 0.00 0.00 83 1015.3
20260507063808 7 114 3.2 4.8 0.00 0.00 0.00 83 1015.3
20260507062809 7 109 1.6 9.7 0.00 0.00 0.00 83 1015.2
20260507062309 7 98 3.2 8.0 0.00 0.00 0.00 83 1015.2
20260507061809 7 91 3.2 4.8 0.00 0.00 0.00 83 1015.1
20260507061308 7 92 3.2 11.3 0.00 0.00 0.00 83 1015.1
20260507060308 7 95 1.6 8.0 0.00 0.00 0.00 83 1015.1
20260507055809 7 92 6.4 9.7 0.00 0.00 0.00 83 1015.0
20260507055309 7 89 3.2 8.0 0.00 0.00 0.00 84 1015.0
20260507054808 7 97 3.2 9.7 0.00 0.00 0.00 84 1014.9
20260507054308 7 79 3.2 9.7 0.00 0.00 0.00 84 1014.9
20260507053809 7 100 3.2 4.8 0.00 0.00 0.00 84 1014.9
20260507053308 7 83 3.2 8.0 0.00 0.00 0.00 84 1014.9
20260507052809 7 85 1.6 4.8 0.00 0.00 0.00 84 1014.9
20260507051309 7 85 4.8 8.0 0.00 0.00 0.00 84 1014.9
20260507050808 7 90 4.8 8.0 0.00 0.00 0.00 84 1014.9
20260507050309 7 95 3.2 8.0 0.00 0.00 0.00 84 1014.9
20260507045808 7 78 3.2 8.0 0.00 0.00 0.00 84 1014.9
20260507045309 7 71 3.2 8.0 0.00 0.00 0.00 84 1014.9
20260507044808 7 45 3.2 8.0 0.00 0.00 0.00 84 1014.9
20260507044309 7 50 1.6 4.8 0.00 0.00 0.00 84 1014.9
20260507042809 7 76 1.6 3.2 0.00 0.00 0.00 83 1014.8
20260507042308 7 85 3.2 8.0 0.00 0.00 0.00 83 1014.8
20260507041808 7 71 1.6 4.8 0.00 0.00 0.00 83 1014.9
20260507041309 7 64 3.2 4.8 0.00 0.00 0.00 83 1014.8
20260507040809 7 74 3.2 8.0 0.00 0.00 0.00 83 1014.8
20260507035808 7 81 4.8 9.7 0.00 0.00 0.00 82 1014.9
20260507035309 7 88 3.2 8.0 0.00 0.00 0.00 82 1014.9
20260507034808 7 80 3.2 8.0 0.00 0.00 0.00 82 1014.9
20260507034308 7 71 3.2 4.8 0.00 0.00 0.00 82 1014.9
20260507033809 7 65 4.8 9.7 0.00 0.00 0.00 82 1014.9
20260507033309 7 75 3.2 11.3 0.00 0.00 0.00 81 1014.9
20260507032809 7 84 3.2 8.0 0.00 0.00 0.00 81 1014.9
20260507032308 7 85 4.8 8.0 0.00 0.00 0.00 81 1014.9
20260507031309 7 95 4.8 12.9 0.00 0.00 0.00 81 1015.0
20260507030809 7 78 4.8 12.9 0.00 0.00 0.00 80 1014.9
20260507030309 7 80 4.8 12.9 0.00 0.00 0.00 80 1015.0
20260507025309 7 89 4.8 12.9 0.00 0.00 0.00 80 1014.9
20260507024809 8 81 4.8 11.3 0.00 0.00 0.00 80 1014.9
20260507024308 8 82 4.8 8.0 0.00 0.00 0.00 80 1014.9
20260507023809 8 77 3.2 9.7 0.00 0.00 0.00 80 1014.9
20260507023309 8 87 3.2 9.7 0.00 0.00 0.00 79 1014.9
20260507022809 8 92 4.8 11.3 0.00 0.00 0.00 79 1014.9
20260507022309 8 93 3.2 9.7 0.00 0.00 0.00 79 1014.9
20260507021808 8 80 6.4 9.7 0.00 0.00 0.00 79 1014.9
20260507021308 8 102 1.6 8.0 0.00 0.00 0.00 79 1014.9
20260507020808 8 114 4.8 8.0 0.00 0.00 0.00 79 1014.9